Weather in Makati City

Philippines     14°34′07″N   121°01′41″E
temp.,
°C
wind,
m/s
gust,
m/s
humid.,
%
clouds,
%
prec.,
mm/h
press.,
hPa
HPBL,
m
27 january, thu
thu2723:00+26e248393 0.0 1010427
02:00+25ene248523 0.0 1009361
05:00+25ene248472 0.0 1009299
08:00+26ene357923 0.0 1011486
11:00+30ese586472 0.0 1010851
14:00+31ese89574 0.0 1008814
17:00+29ese79635 0.0 1008539
20:00+27ese597348 0.0 1011451
28 january, fri
fri2823:00+26ese5876100 0.0 1011481
02:00+26e357633 0.0 1010370
05:00+25e127979 0.0 1010319
08:00+26ese3477100 0.0 1012408
11:00+29se3561100 0.0 1011687
14:00+31ese45569 0.0 1008707
17:00+30se686278 0.1 1007413
20:00+28se687217 0.1 1010345
29 january, sat
sat2923:00+26se45795 0.0 1011292
02:00+26e22805 0.0 1010236
05:00+25e11815 0.0 1009186
08:00+26n11755 0.0 1011336
11:00+29wsw01645 0.0 1011575
14:00+31wnw225313 0.0 1007637
17:00+29wsw556211 0.0 1007428
20:00+28wsw467273 0.0 1009291
30 january, sun
sun3023:00+27wsw347713 0.0 1009276
02:00+26sw12805 0.0 1008183
05:00+26s01805 0.0 1008196
08:00+27se117683 0.0 1010336
11:00+29nw1165100 0.0 1010610
14:00+31wnw2255100 0.0 1007754
17:00+29ssw4567100 0.4 1007369
20:00+28sse227298 1.3 1010190
31 january, mon
mon3123:00+26ese3481100 3.0 1010147
02:00+26ese5683100 6.0 1010403
05:00+25ese4679100 0.3 1010441
08:00+26e577391 0.3 1012759
11:00+29e566216 0.0 1011904
14:00+30ese665823 0.0 1009920
17:00+29ese66629 0.0 1009694
20:00+26ese677040 0.0 1011473